Location: Mountain Hill
(32.7232°N, 85.0227°W)
Time: 09:32:11
(UTC+00:00)

BlueWalker 3 - Visible Passes

Search period start: 21 January 2026 00:00
Search period end: 31 January 2026 00:00
Orbit: 451 x 463 km, 53.2° (Epoch: 20 January)

Date Brightness Start Highest point End Pass type
(mag) Time Alt. Az. Time Alt. Az. Time Alt. Az.
21 Jan 2.5 00:08:56 10° WSW 00:12:22 47° NW 00:14:38 19° NNE visible
21 Jan 2.0 23:33:25 10° SW 23:36:57 68° NW 23:40:30 10° NE visible
23 Jan 4.5 00:38:08 10° NW 00:39:25 11° NNW 00:40:41 10° N visible
24 Jan 4.3 00:01:46 10° WNW 00:03:49 14° NW 00:05:51 10° N visible
